{"data":{"norad_id":37869,"intl_designator":"2011-064C","name":"COSMOS 2475 (743)","alt_names":[],"object_type":"PAYLOAD","status":"ACTIVE","operator":null,"country":"CIS","launch_date":"2011-11-04","launch_site_code":"TYMSC","launch_vehicle":null,"mission":null,"orbit_class":"UNKNOWN","rcs_meters":6.3096,"size_class":null,"mass_kg":null,"dimensions":null,"purposes":["nav"],"wikipedia_slug":null,"has_3d_model":false,"image_url":null,"decayed_at":null,"tle_current":{"epoch":"2026-09-19T14:00:01.452096Z","epoch_age_seconds":87015,"freshness":"FRESH","line1":"1 37869U 11064C   26262.58335014  .00000031  00000+0  00000+0 0  9994","line2":"2 37869  65.3423  69.7899 0024728 245.7583 111.5105  2.13101769115778","mean_motion":2.13101769,"eccentricity":0.0024728,"inclination_deg":65.3423,"raan_deg":69.7899,"arg_perigee_deg":245.7583,"mean_anomaly_deg":111.5105,"bstar":0,"rev_number":11577,"period_min":675.73348018523,"perigee_km":19066.829572755,"apogee_km":19192.982149529,"semimajor_km":25508.042861142,"source":"CELESTRAK","updated_at":"2026-09-20T09:00:46.275641Z"}}}